Back to catalog

FENGYUN 1C DEB

AliveSSO
NORAD 31239·DEBRIS·🇨🇳 China

Launched May 10, 1999 from Taiyuan Satellite Launch Center

Loading…

Next Passes (next 24 hours)

TLE

FreshSource: Space-Track

Epoch: Sep 13, 2026, 11:24 UTC

1 31239U 99025BLV 26256.47524175  .00000253  00000-0  16516-3 0  9991
2 31239  98.7746 249.4328 0050201 140.4090  12.7918 14.10181501998836

Track FENGYUN 1C DEB in real time with AllMySat

Download on the App Store